Zurück zum Katalog

STARLINK-30509

AktivKommunikationVLEO
NORAD 57977·PAYLOAD·🇺🇸 United States

Gestartet Sep 30, 2023 von Cape Canaveral Space Force Station

Loading…

Nächste Überflüge (nächste 24 Stunden)

TLE

AktuellSource: CelesTrak SupGP

Epoche: Sep 14, 2026, 14:34 UTC

1 57977C 23151P   26257.60743056  .00016546  00000+0  59928-3 0  2574
2 57977  43.0023   3.7701 0001362 262.5628 184.3152 15.27571345    15

Verfolge STARLINK-30509 in Echtzeit mit AllMySat

Download on the App Store